Regional Weather Roundup
Issued by NWS

Home | Current Version | Previous Version | Graphics & Text | Print | Product List | Glossary Off
Versions: 1 2 3 4 5 6 7 8 9 10 11 12 13 14 15 16 17 18 19 20 21 22 23 24 25 26 27 28 29 30 31 32 33 34 35 36 37 38 39 40 41 42 43 44 45 46 47 48 49 50

000
ASUS43 KTOP 300208
RWRKS

WEATHER ROUNDUP FOR KANSAS
NATIONAL WEATHER SERVICE GOODLAND KS
900 PM CDT SAT APR 29 2017

NOTE:  "FAIR" INDICATES FEW OR NO CLOUDS BELOW 12,000 FEET WITH NO
SIGNIFICANT WEATHER AND/OR OBSTRUCTIONS TO VISIBILITY.

KSZ001>006-013>018-027>032-041>047-300300-
NORTHWEST KANSAS

CITY           SKY/WX    TMP DP  RH WIND       PRES   REMARKS
GOODLAND       LGT SNOW  33  31  92 N25G35    30.02R FOG     WCI  20
HAYS           MIX PCPN  37  35  92 N24G32    29.90R FOG     WCI  26
HILL CITY      LGT RAIN  37  35  92 N23G30    29.97R WCI  26
RUSSELL        LGT RAIN  40  38  93 N22G30    29.90R FOG     WCI  30
$$

KSZ061>065-074>080-084>089-300300-
SOUTHWEST KANSAS

CITY           SKY/WX    TMP DP  RH WIND       PRES   REMARKS
DODGE CITY     LGT SNOW  37  35  92 N28G38    29.83F FOG     WCI  25
ELKHART          N/A    N/A N/A N/A MISG        N/A
GARDEN CITY    FLURRIES  34  32  92 N21       29.91R WCI  22
GREAT BEND     RAIN      39  39 100 N26       29.83S FOG     WCI  28
LIBERAL        LGT RAIN  33  33 100 N21G28    29.90R WCI  21
PRATT          LGT RAIN  39  38  96 N22G35    29.78S WCI  28
$$

KSZ066>073-081>083-090>101-300300-
SOUTHEAST KANSAS

CITY           SKY/WX    TMP DP  RH WIND       PRES   REMARKS
CHANUTE        RAIN      54  52  93 E30G40    29.59F FOG
COFFEYVILLE    RAIN      57  56  96 NE16G35   29.63S
HUTCHINSON     LGT RAIN  44  42  93 N18G33    29.76F FOG
MEDICINE LODGE   N/A    N/A N/A N/A N16G31    29.74R
NEWTON         LGT RAIN  44  43  96 NE21G30   29.75F FOG
PARSONS        LGT RAIN  61  58  90 E13G40    29.58F
WICHITA INTL   LGT RAIN  46  45  96 N22G31    29.72R FOG
WICHITA JABRA  LGT RAIN  46  45  96 NE23G33   29.71F FOG
WICHITA MCCONL LGT RAIN  46  45  93 NE23G29   29.70R
WINFIELD       CLOUDY    49  46  90 N15       29.68R
$$

KSZ007>012-019>026-033>040-048>060-102>105-300300-
NORTHEAST KANSAS

CITY           SKY/WX    TMP DP  RH WIND       PRES   REMARKS
CONCORDIA      LGT RAIN  41  41 100 NE21G30   29.91R FOG
EMPORIA        LGT RAIN  45  45 100 NE29G36   29.69F
LAWRENCE       LGT RAIN  45  44  97 N13       29.85R
MANHATTAN      LGT RAIN  44  43  96 NE17      29.86R FOG
MARYSVILLE     RAIN      41  39  93 NE17G26   29.92R
OLATHE IND     HVY RAIN  45  44  97 E20G25    29.77F FOG
OLATHE EXE     HVY RAIN  45  45 100 N10       29.86R FOG
SALINA         LGT RAIN  45  41  86 NE22G33   29.84S
TOPEKA BILLARD LGT RAIN  45  45 100 NE14      29.84F FOG
TOPEKA FORBES  LGT RAIN  46  44  93 NE15G24   29.79F FOG
$$



USA.gov is the U.S. government's official web portal to all federal, state and local government web resources and services.